Hourly Weather Roundup
Issued by NWS Central Illinois

Home | Current Version | Previous Version | Text Only | Print | Product List | Glossary On
Versions: 1 2 3 4 5 6 7 8 9 10 11 12 13 14 15 16 17 18 19 20 21 22 23 24 25 26 27 28 29 30 31 32 33 34 35 36 37 38 39 40 41 42 43 44 45 46 47 48 49 50
000
NZUS43 KILX 242310
HWRILX

Area Weather Roundup
National Weather Service Lincoln IL
600 PM CDT MON APR 24 2017

NOTE:  "FAIR" indicates few or no clouds below 12,000 feet, with
       no sigificant weather and/or obstructions to visibility.


CITY           SKY/WX    TMP DP  RH WIND       PRES   REMARKS
Bloomington    SUNNY     74  29  19 SE16      29.77F
Champaign      SUNNY     76  27  16 E15       29.76F
Danville       SUNNY     74  31  20 SE12G22   29.75F
Decatur        SUNNY     75  32  20 SE13      29.75F
Effingham      SUNNY     76  36  23 NE8       29.76F
Flora          SUNNY     76  37  24 SE7       29.76S
Galesburg      SUNNY     74  30  19 SE12      29.71F
Jacksonville   SUNNY     75  27  16 SE9       29.74F
Lacon          SUNNY     75  26  16 SE13G18   29.74F
Lawrenceville  SUNNY     77  36  22 E3        29.75F
Litchfield     SUNNY     73  31  20 SE5       29.75S
$$


CITY           SKY/WX    TMP DP  RH WIND       PRES   REMARKS
Lincoln        SUNNY     78  31  18 SE9       29.74F
Macomb         MOSUNNY   77  25  14 S14       29.73F
Mattoon        SUNNY     74  33  22 E9        29.74F
Mt Carmel AP   SUNNY     76  33  20 E9        29.74F
Olney-Noble AP SUNNY     76  34  22 SE7       29.76S
Paris AP       SUNNY     76  38  24 SE9       29.77F
Peoria         SUNNY     75  23  14 SE10      29.74F
Pontiac        MOSUNNY   78  21  12 SE16      29.78S
Rantoul        SUNNY     78  28  16 E15       29.76F
Robinson       SUNNY     76  40  26 E10       29.76S
Springfield    SUNNY     77  30  17 SE8       29.74F
Taylorville    SUNNY     75  27  16 SE8       29.75S
$$

...REGIONAL REPORTS...


CITY           SKY/WX    TMP DP  RH WIND       PRES   REMARKS
Chicago O`Hare CLOUDY    70  29  21 E10       29.81F
Kankakee       SUNNY     74  28  18 E16       29.79F
Moline         SUNNY     75  27  17 SE21G32   29.68F
Mount Sterling MOSUNNY   75  28  17 SE15      29.71F
Mount Vernon   SUNNY     75  38  26 E6        29.75F
Pittsfield     MOSUNNY   77  30  17 SE10G16   29.73F
Quincy         SUNNY     75  28  17 S17G23    29.70F
Rockford       PTSUNNY   73  32  22 SE12      29.78F
$$


CITY           SKY/WX    TMP DP  RH WIND       PRES   REMARKS
Burlington     SUNNY     74  28  18 SE14G24   29.68F
Cedar Rapids   SUNNY     73  28  18 SE16G25   29.66F
Des Moines     CLOUDY    74  29  19 S17G23    29.60S
Kirksville     CLOUDY    73  31  21 SE18G28   29.65F
Ottumwa        MOSUNNY   73  26  17 SE15G26   29.63F
St Louis       PTSUNNY   75  34  22 SE6       29.75F
$$


CITY           SKY/WX    TMP DP  RH WIND       PRES   REMARKS
Terre Haute    SUNNY     74  41  30 E10       29.76F
Evansville     SUNNY     78  47  33 VRB3      29.75F
Indianapolis   MOSUNNY   75  44  33 E13       29.77F
Lafayette      SUNNY     70  38  31 E12       29.78F
Madison        CLOUDY    70  27  20 SE16      29.74F
Milwaukee      PTSUNNY   63  33  32 SE12      29.83F
$$






USA.gov is the U.S. government's official web portal to all federal, state and local government web resources and services.